METEOR 2-17 DEB

Satellite information

Favourite Embed

Satellite Type and Status

DEBRISIN ORBIT

Key statistics

Satellite METEOR 2-17 DEB at a glance.

Uptime

13833

Days in orbit

Revolutions

≈ 14.1

Per day

Orbit

LEO

Low Earth Orbit

Inclination

82.5

Latest

Satellite identification and parameters

Extended collection of information and parameters for METEOR 2-17 DEB.

Object identification

Identified? True

Debris? True

Object name: METEOR 2-17 DEB

International designator: 1988-005D

Object number (NORAD): 28989

Object ID (CCSDS): 28989

Country: COMMONWEALTH OF INDEPENDENT STATES (CIS)

Current information (Y/N): Y

RCS size: SMALL

Orbital parameters

Period: 101.891 minutes

Inclination: 82.5244 deg

SMA: 7226.319 km

Apoapsis: 868.526 km

Periapsis: 827.843 km

RAAN: 10.031 deg

Eccentricy: 0.00281492

Argument of periapsis: 247.5693 deg

Mean anomaly: 112.2501 deg

Mean motion: 14.13276218 rev/day

Mean motion (dot): 0.00004495 rev/day2

B* drag term: 0.0023818521 1/REarth

Two-line elements (TLE)

Creation date: Dec. 10, 2025, 7:58 p.m.

Reference frame: TEME

Reference center: EARTH

Epoch: Dec. 10, 2025, 8:37 a.m. UTC

TLE line 0: 0 METEOR 2-17 DEB

TLE line 1: 1 28989U 88005D 25344.35969820 .00004495 00000-0 23819-2 0 9994

TLE line 2: 2 28989 82.5244 10.0310 0028149 247.5693 112.2501 14.13276218634143

Live tracking on map

Real-time ground track for satellite METEOR 2-17 DEB.

In-orbit conjunctions

A list of the most updated potential collisions computed for object METEOR 2-17 DEB.

Target Orbit TCA Probability of collision Miss distance Type
SPOT 3 SSO 2025-11-07 10:09:29 0.0006041038 308.0 (m) PAYLOAD

Associated space launch

Second generation soviet meteorological satellite

METEOR 2-17 DEB was lifted into orbit during the mission ‘Tsiklon-3 | Meteor-2 17’, on board a Tsiklon-3 space rocket.

The launch took place on Jan. 30, 1988, 10:59 a.m. from 32/1.

For more information about the launch, click the button.

Launch to space Tsiklon-3 | Meteor-2 17
Tsiklon-3 | Meteor-2 17

Agency: N/A

Status: Launch Successful

Launch date: Jan. 30, 1988, 10:59 a.m. UTC

Rocket: Tsiklon-3

Launch pad: 32/1

Location: Plesetsk Cosmodrome, Russian Federation

...

Latest news about this satellite

There are no fresh news available about this satellite. Check back as we update our databases every day.


Newsletter sign-up

Weekly statistics, charts and insights to help you stay on top of the space industry.